Find Starlink 4199

NORAD ID: 52857 Int'l Des: 2022-062 Owner: SPXS Country: US Constellation: starlink operational
LEOCIRCULAR

Current View

Loading 3D Globe...

About Starlink 4199

Description loading...

Upcoming Passes

Passes for default location (London). Set your location on the main map for personalized predictions.

Altitude History

Loading altitude history...

Two-Line Element Set

1 52857U 22062AD 26150.02391380 .00000884 00000-0 73630-4 0 9992
2 52857 53.2003 18.9859 0001468 80.8724 279.2434 15.08837081218205
Epoch: May 30, 2026 • Age: 15 hours

Current Status

Altitude 543.9 km
Velocity 7.60 km/s
Sub-Earth Point 47.05°N, 46.42°W
Launch Date Jun 17, 2022
Age 3.9 years
Type internet

Technical Details

Classification Payload
Mass 297.00 kg
Dry Mass 275.00 kg
Total Mass 297.00 kg
Length 0.20 m
Diameter 2.80 m
Span 9.00 m
Shape Box + pan
Manufacturer SPXS
Bus Type Starlink
Phase Status In Orbit
Owner/State SPXS/US

Most Searched